This is the latest recevied weather packets stored in our database for station/object G4MDP-13. If no packets are shown the sender has not sent any weather packets the latest 10 day(s).
| Time | Temp. | Humidity | Pressure | Rain* | Wind** | Luminosity | Snow |
|---|---|---|---|---|---|---|---|
| 1778078057 | 15.56° C | 44% | 1006.3 hPa | 0 mm | - | - | - |
| 1778077157 | 15° C | 44% | 1006.1 hPa | 0 mm | - | - | - |
| 1778076317 | 15° C | 44% | 1006.3 hPa | 0 mm | - | - | - |
| 1778076257 | 15.56° C | 44% | 1006.3 hPa | 0 mm | - | - | - |
| 1778075357 | 14.44° C | 45% | 1006.3 hPa | 0 mm | - | - | - |
| 1778074517 | 15.56° C | 43% | 1006.3 hPa | 0 mm | - | - | - |
| 1778074457 | 15.56° C | 43% | 1006.3 hPa | 0 mm | - | - | - |
| 1778073557 | 16.11° C | 42% | 1006.5 hPa | 0 mm | - | - | - |
| 1778072717 | 16.11° C | 42% | 1006.3 hPa | 0 mm | - | - | - |
| 1778072657 | 16.11° C | 42% | 1006.3 hPa | 0 mm | - | - | - |
| 1778071757 | 16.11° C | 43% | 1006.2 hPa | 0 mm | - | - | - |
| 1778070917 | 14.44° C | 45% | 1006.5 hPa | 0 mm | - | - | - |
| 1778070857 | 13.89° C | 45% | 1006.5 hPa | 0 mm | - | - | - |
| 1778069957 | 15° C | 45% | 1006.3 hPa | 0 mm | - | - | - |
| 1778069117 | 14.44° C | 44% | 1006.4 hPa | 0 mm | - | - | - |
| 1778069057 | 14.44° C | 45% | 1006.5 hPa | 0 mm | - | - | - |
| 1778068157 | 14.44° C | 47% | 1006.2 hPa | 0 mm | - | - | - |
| 1778067317 | 15° C | 47% | 1006.4 hPa | 0 mm | - | - | - |
| 1778067257 | 15° C | 47% | 1006.6 hPa | 0 mm | - | - | - |
| 1778066357 | 15° C | 48% | 1006.6 hPa | 0 mm | - | - | - |
| 1778065517 | 14.44° C | 46% | 1006.5 hPa | 0 mm | - | - | - |
| 1778065457 | 14.44° C | 48% | 1006.6 hPa | 0 mm | - | - | - |
| 1778064558 | 14.44° C | 49% | 1006.6 hPa | 0 mm | - | - | - |
| 1778063717 | 15° C | 49% | 1006.7 hPa | 0 mm | - | - | - |
| 1778063657 | 15° C | 48% | 1006.6 hPa | 0 mm | - | - | - |
* Rain latest hour (hover to see other rain measurements)
** Current wind speed in m/s (hover to see current wind gust speed)